Orbital Elements at Epoch 2459200.5 (2020-Dec-17.0) TDB
Reference: JPL 25 (heliocentric ecliptic J2000)
Element | Value | Uncertainty (1-sigma) | Units |
e | .1849240696064441 | 5.1458e-08 | |
a | 2.654678760757548 | 1.7088e-08 | au |
q | 2.16376476082047 | 1.375e-07 | au |
i | 12.19345897392651 | 5.7611e-06 | deg |
node | 241.9119298732859 | 1.9729e-05 | deg |
peri | 121.9040510131813 | 2.36e-05 | deg |
M | 283.3218406183023 | 1.4129e-05 | deg |
tp | 2459537.000387132596 (2021-Nov-18.50038713) | 6.3514e-05 | TDB |
period | 1579.851946689389 4.33 | 1.5254e-05 4.176e-08 | d yr |
n | .2278694536879782 | 2.2002e-09 | deg/d |
Q | 3.145592760694626 | 2.0248e-08 | au |
|
| | Orbit Determination Parameters
Additional Information
|